Location: Newark
(44.9000°N, 9.6000°E)
Time: 07:07:06
(UTC+00:00)

ISS - Pass Details

Date: 20 January 2020
Orbit: 415 x 422 km, 51.6° (Epoch: 22 February)

Event Time Altitude Azimuth Distance (km) Brightness Sun altitude
Rises 17:16:09 0° 190° (S) 2,364 0.5 -11.3°
Reaches altitude 10° 17:19:07 10° 162° (SSE) 1,504 -1.0 -11.8°
Maximum altitude 17:20:46 13° 132° (SE) 1,330 -1.5 -12.0°
Enters shadow 17:21:33 12° 117° (ESE) 1,372 -1.6 -12.2°
